Regional Weather Roundup
Issued by NWS Boston, MA

Current Version | Previous Version | Text Only | Print | Product List | Glossary Off
Versions: 1 2 3 4 5 6 7 8 9 10 11 12 13 14 15 16 17 18 19 20 21 22 23 24 25 26 27 28 29 30 31 32 33 34 35 36 37 38 39 40 41 42 43 44 45 46 47 48 49 50
000 ASUS41 KBOX 230410 RWRBOX REGIONAL WEATHER ROUNDUP NATIONAL WEATHER SERVICE TAUNTON MA 1200 AM EDT MON OCT 23 2017 NOTE: "FAIR" INDICATES FEW OR NO CLOUDS BELOW 12,000 FEET WITH NO SIGNIFICANT WEATHER AND/OR OBSTRUCTIONS TO VISIBILITY. MAZALL-230500- EASTERN MASSACHUSETTS CITY SKY/WX TMP DP RH WIND PRES REMARKS BOSTON NOT AVBL BEVERLY CLOUDY 55 53 93 CALM 30.40F LAWRENCE CLOUDY 57 53 86 CALM 30.43F BEDFORD CLOUDY 55 51 86 CALM 30.40F BLUE HILL N/A 54 53 97 CALM 30.40S NORWOOD FOG 58 56 93 CALM 30.41S VSB 1 MARSHFIELD FOG 57 57 100 CALM 30.40F VSB<1/4 PLYMOUTH FOG 55 53 93 CALM 30.41S VSB 1/4 TAUNTON FOG 52 51 97 CALM 30.40F VSB 1/4 NEW BEDFORD FOG 48 48 100 CALM 30.40S VSB 1/4 $$ MAZALL-230500- CAPE COD AND THE ISLANDS CITY SKY/WX TMP DP RH WIND PRES REMARKS FALMOUTH PTCLDY 48 48 100 CALM 30.42S FOG HYANNIS CLEAR 52 51 97 CALM 30.40F FOG CHATHAM CLEAR 58 58 100 SW3 30.42F PROVINCETOWN FOG 56 55 97 W5 30.41F VSB 1/2 NANTUCKET CLEAR 55 55 100 SE6 30.42F FOG MARTHAS VNYRD FOG 44 44 100 CALM 30.41S VSB 1/4 $$ MAZALL-230500- CENTRAL AND WESTERN MASSACHUSETTS CITY SKY/WX TMP DP RH WIND PRES REMARKS WORCESTER FOG 52 50 93 CALM 30.41S VSB 1/4 FITCHBURG CLOUDY 56 55 97 CALM 30.42S FOG ORANGE PTCLDY 44 44 100 CALM 30.40S SPRINGFIELD CLEAR 44 43 94 NE3 30.38S WESTFIELD PTCLDY 46 46 100 CALM 30.39S FOG NORTH ADAMS PTCLDY 54 43 66 E10 30.36F PITTSFIELD CLEAR 47 41 80 NE5 30.37F $$ RIZALL-230500- RHODE ISLAND CITY SKY/WX TMP DP RH WIND PRES REMARKS PROVIDENCE CLOUDY 53 51 93 CALM 30.41S NEWPORT FOG 56 56 100 CALM 30.40F VSB 3/4 BLOCK ISLAND PTCLDY 59 59 100 S7 30.41S SMITHFIELD FOG 52 52 100 NW3 30.41S VSB 1/4 WESTERLY MOCLDY 51 49 92 CALM 30.41S $$ CTZALL-230500- CONNECTICUT CITY SKY/WX TMP DP RH WIND PRES REMARKS BRADLEY INTL PTCLDY 52 48 86 CALM 30.39S HARTFORD PTCLDY 52 50 93 CALM 30.39S BRIDGEPORT CLEAR 54 52 93 CALM 30.39S DANBURY PTCLDY 48 46 93 CALM 30.39F GROTON PTCLDY 53 52 96 N3 30.40S NEW HAVEN CLEAR 48 47 96 CALM 30.40R CHESTER NOT AVBL MERIDEN PTCLDY 47 45 93 CALM 30.39S WILLIMANTIC PTCLDY 48 46 93 CALM 30.41S OXFORD CLEAR 49 47 93 CALM 30.40S $$ MEZ002-015-021-024-NHZ003-005-008-011-012-014-VTZ005-008-230500- NORTHERN NEW ENGLAND CITY SKY/WX TMP DP RH WIND PRES REMARKS PORTLAND ME CLOUDY 53 52 96 VRB5 30.42F FOG BANGOR ME CLOUDY 49 41 74 CALM 30.45S CONCORD NH CLOUDY 53 51 93 CALM 30.42S MANCHESTER NH CLOUDY 55 53 93 CALM 30.40F NASHUA NH CLOUDY 56 53 90 SE3 30.42S PORTSMOUTH NH CLOUDY 55 52 91 NE3 30.40S JAFFREY NH PTCLDY 48 48 100 CALM 30.41S KEENE NH PTCLDY 44 43 96 CALM 30.40R BURLINGTON VT PTCLDY 64 43 46 S10 30.28S MT. WASHINGTON PTCLDY 45 27 49 SW30G39 N/A $$ NYZ052-076-230500- EASTERN NEW YORK CITY SKY/WX TMP DP RH WIND PRES REMARKS ALBANY PTCLDY 58 44 60 S7 30.34S NEW YORK CITY MOCLDY 63 57 81 SE5 30.37F $$ ANZALL-230500- MARINE OBSERVATIONS STATION/POSITION TIME TEMP WIND PRES VSBY WAVE AIR SEA DIR/SP/G HT/PER (UTC) (F) (DEG/KT/KT) (MB) (MI) (FT/S) BOSTON BUOY 0350 55 59 320/ 6/ 8 1029.4F 1/10 BUZZARDS BAY 0300 62 190/ 7/ 7 1030.1F NANTUCKET SOUND 0350 61 62 180/ 6/ 6 1029.9F 0 MASS BAY-STELLWA 0304 56 59 360/ 6/ 8 1029.0F 2/11 ISLE OF SHOALS 0400 54 20/ 4/ 5 1029.4F S OF BLOCK IS NOT AVBL $$ ......................KEY......................... SKY/WX - SKY CONDITION/PRESENT WEATHER TMP - TEMPERATURE IN FAHRENHEIT DWPT - DEWPOINT IN FAHRENHEIT RH - RELATIVE HUMIDITY IN PERCENT WIND - DIRECTION AND SPEED IN MPH PRES - MEAN SEA LEVEL PRESSURE IN INCHES OF HG WCI - WIND CHILL INDEX VSB - VISIBILITY IN MILES HX - HEAT INDEX TC - TEMPERATURE IN CELSIUS VRB - VARIABLE WIND DIRECTION N/A - NOT AVAILABLE

USA.gov is the U.S. government's official web portal to all federal, state and local government web resources and services.